Location: Topeka
(39.0480°N, 95.6780°W)
Time: 08:35:06
(UTC-05:00)

ISS - Visible Passes

Search period start: 23 June 2018 00:00
Search period end: 03 July 2018 00:00
Orbit: 403 x 408 km, 51.6° (Epoch: 24 June)

Date Brightness Start Highest point End Pass type
(mag) Time Alt. Az. Time Alt. Az. Time Alt. Az.
29 Jun -0.9 05:11:34 10° SE 05:11:58 10° SE 05:12:22 10° ESE visible
01 Jul -2.1 05:01:07 10° S 05:03:54 25° SE 05:06:41 10° ENE visible
02 Jul -1.4 04:11:07 12° SE 04:11:56 13° SE 04:13:36 10° E visible
